Regional Weather Roundup
Issued by NWS

Home | Current Version | Previous Version | Text Only | Print | Product List | Glossary On
Versions: 1 2 3 4 5 6 7 8 9 10 11 12 13 14 15 16 17 18 19 20 21 22 23 24 25 26 27 28 29 30 31 32 33 34 35 36 37 38 39 40 41 42 43 44 45 46 47 48 49 50
000
ASUS42 KFFC 220203
RWRGA
WEATHER ROUNDUP FOR GEORGIA
NATIONAL WEATHER SERVICE PEACHTREE CITY GA
1000 PM EDT THU AUG 21 2014

NOTE: "FAIR" INDICATES FEW OR NO CLOUDS BELOW 12,000 FEET WITH NO
SIGNIFICANT WEATHER AND/OR OBSTRUCTIONS TO VISIBILITY.

* = USE WITH CAUTION. THE STATIONS MARKED WITH AN ASTERISK MAY NOT
REPORT WEATHER SUCH AS PRECIPITATION, FOG, OR THUNDER AND ARE NOT
QUALITY CONTROLLED BY NWS.

THE REMARK "TC" DENOTES TEMPERATURE READING IN DEGREES CELSIUS.

GAZ001>058-220300-
NORTH GEORGIA

CITY           SKY/WX    TMP DP  RH WIND       PRES   REMARKS
ATLANTA        PTCLDY    78  71  79 W3        30.13R
ATHENS         CLEAR     78  71  79 W3        30.10R
CHAMBLEE       CLEAR     78  71  79 MISG      30.12R
PEACHTREE CITY CLEAR     74  72  93 CALM      30.13R
ROME           PTCLDY    76  75  97 CALM      30.10R
WEST ATLANTA   CLEAR     78  72  81 CALM      30.12R
GAINESVILLE    CLEAR     83  69  62 W3        30.14S
CARTERSVILLE   PTCLDY    74  72  93 CALM      30.12R


CITY           SKY/WX    TMP DP  RH WIND       PRES   REMARKS
DALTON*        CLEAR     79  75  89 CALM      30.11R
MARIETTA       PTCLDY    78  74  88 W2        30.13R
KENNESAW*      CLEAR     81  70  69 SW3       30.14R
$$

GAZ059>098-102>109-220300-
CENTRAL GEORGIA

CITY           SKY/WX    TMP DP  RH WIND       PRES   REMARKS
AUGUSTA-BUSH   CLEAR     79  72  79 CALM      30.06R
AUGUSTA-DANIEL CLEAR     88  67  49 NW3       30.08R HX  91
COLUMBUS       MOCLDY    80  71  74 CALM      30.11R
MACON          CLEAR     80  72  76 NW3       30.09R
ROBINS AFB     CLEAR     80  74  83 CALM      30.08R


CITY           SKY/WX    TMP DP  RH WIND       PRES   REMARKS
LAGRANGE*      MOCLDY    78  77  97 CALM      30.12R
SYLVANIA*      CLEAR     79  76  91 CALM      30.08R
MILLEDGEVILLE* CLEAR     81  75  83 CALM      30.09R
$$

GAZ099>101-110>166-220300-
SOUTH GEORGIA

CITY           SKY/WX    TMP DP  RH WIND       PRES   REMARKS
SAVANNAH       CLEAR     84  74  71 CALM      30.07R HX  91
VALDOSTA       CLOUDY    79  71  76 CALM      30.10R
ALMA           CLEAR     85  72  65 NW6       30.08R HX  91
ST SIMONS      CLEAR     85  75  72 S6        30.07R HX  93
FT STEWART     CLEAR     80  72  75 CALM      30.05R
ALBANY         MOCLDY    73  72  96 CALM      30.13R
HUNTER AFB     CLEAR     84  74  73 SE2       30.05R HX  91
MOODY AFB      CLOUDY    80  73  79 SE2       30.09R
BRUNSWICK      CLEAR     86  75  70 S6        30.08S HX  95


CITY           SKY/WX    TMP DP  RH WIND       PRES   REMARKS
BAINBRIDGE*    CLOUDY    79  77  94 CALM      30.11R
MOULTRIE*      MOCLDY    77  73  88 CALM      30.12R
VIDALIA*         N/A     81  73  78 CALM      30.08R
WAYCROSS*      CLEAR     87  77  71 NW5       30.08R HX  98
DOUGLAS*       PTCLDY    82  70  65 W3        30.10R
$$


USA.gov is the U.S. government's official web portal to all federal, state and local government web resources and services.